FW1308 Weather Reports


Display with metric or nautical units.
time (UTC)temp
F
wind
direction
speed
MPH
gust
MPH
rain 1hr
in
rain 24hr
in
rain mn
in
humidity
%
barometer
mb
20260510221611 44 237 0.0 1.0 0.00 0.00 0.00 71 1015.3
20260510220058 45 193 0.0 0.0 0.00 0.00 0.00 69 1015.4
20260510214556 45 176 0.0 1.0 0.00 0.00 0.00 68 1015.4
20260510213057 45 144 0.0 1.0 0.00 0.00 0.00 67 1015.4
20260510211554 46 146 0.0 1.0 0.00 0.00 0.00 66 1015.6
20260510210053 47 142 0.0 2.0 0.00 0.00 0.00 65 1015.6
20260510204555 47 148 0.0 2.0 0.00 0.00 0.00 64 1015.7
20260510203050 48 142 0.0 2.0 0.00 0.00 0.00 63 1015.8
20260510201549 48 18 0.0 2.0 0.00 0.00 0.00 61 1015.9
20260510200112 49 12 0.0 3.0 0.00 0.00 0.00 60 1016.0
20260510194554 50 24 0.0 2.0 0.00 0.00 0.00 59 1016.1
20260510193056 50 13 0.0 3.0 0.00 0.00 0.00 58 1016.3
20260510191553 51 352 1.0 3.0 0.00 0.00 0.00 56 1016.3
20260510190043 52 30 1.0 6.0 0.00 0.00 0.00 54 1016.4
20260510184542 52 25 2.0 5.0 0.00 0.00 0.00 54 1016.6
20260510183048 53 354 1.0 4.0 0.00 0.00 0.00 54 1016.6
20260510181542 53 23 1.0 9.0 0.00 0.00 0.00 54 1016.8
20260510180041 53 43 2.0 6.0 0.00 0.00 0.00 53 1016.7
20260510174540 53 4 2.0 6.0 0.00 0.00 0.00 53 1016.8
20260510173039 53 33 2.0 8.0 0.00 0.00 0.00 53 1017.0
20260510171541 54 321 2.0 8.0 0.00 0.00 0.00 52 1016.9
20260510170033 55 11 3.0 9.0 0.00 0.00 0.00 51 1017.1
20260510164542 56 13 1.0 9.0 0.00 0.00 0.00 48 1017.3
20260510163030 56 169 2.0 7.0 0.00 0.00 0.00 48 1017.6
20260510161529 56 65 1.0 6.0 0.00 0.00 0.00 48 1017.7
20260510160033 56 2 2.0 6.0 0.00 0.00 0.00 47 1018.0
20260510154526 56 49 3.0 7.0 0.00 0.00 0.00 47 1018.0
20260510153036 56 71 4.0 10.0 0.00 0.00 0.00 47 1018.2
20260510151524 57 41 4.0 10.0 0.00 0.00 0.00 47 1018.4
20260510150022 57 29 2.0 10.0 0.00 0.00 0.00 47 1018.5
20260510144528 58 38 3.0 9.0 0.00 0.00 0.00 45 1018.8
20260510143026 58 95 2.0 8.0 0.00 0.00 0.00 47 1018.8
20260510141515 57 148 0.0 9.0 0.00 0.00 0.00 50 1018.9
20260510140013 56 36 0.0 8.0 0.00 0.00 0.00 50 1019.0
20260510134512 57 30 4.0 10.0 0.00 0.00 0.00 50 1019.2
20260510133028 56 32 5.0 10.0 0.00 0.00 0.00 53 1019.2
20260510131510 56 38 4.0 12.0 0.00 0.00 0.00 51 1019.4
20260510130008 57 73 2.0 6.0 0.00 0.00 0.00 50 1019.5
20260510124508 56 354 5.0 10.0 0.00 0.00 0.00 51 1019.6
20260510123003 56 41 3.0 11.0 0.00 0.00 0.00 53 1019.8
20260510121501 55 55 1.0 8.0 0.00 0.00 0.00 53 1020.0
20260510120002 55 23 3.0 11.0 0.00 0.00 0.00 55 1020.1
20260510114604 56 358 4.0 11.0 0.00 0.00 0.00 53 1020.3
20260510113056 54 23 2.0 9.0 0.00 0.00 0.00 58 1020.7
20260510111559 55 25 3.0 9.0 0.00 0.00 0.00 56 1020.9
20260510110051 53 134 3.0 10.0 0.00 0.00 0.00 61 1021.1
20260510104549 52 41 2.0 13.0 0.00 0.00 0.00 62 1021.0
20260510103048 52 106 2.0 9.0 0.00 0.00 0.00 61 1021.2
20260510101545 52 30 2.0 6.0 0.00 0.00 0.00 63 1021.2
20260510100044 52 44 1.0 7.0 0.00 0.00 0.00 65 1021.3
20260510094543 51 75 6.0 10.0 0.00 0.00 0.00 66 1021.6
20260510093041 51 70 2.0 11.0 0.00 0.00 0.00 69 1021.8
20260510091540 51 212 2.0 6.0 0.00 0.00 0.00 70 1021.8
20260510090038 51 30 4.0 7.0 0.00 0.00 0.00 70 1021.9
20260510084535 50 326 1.0 9.0 0.00 0.00 0.00 73 1021.9
20260510083033 49 52 3.0 9.0 0.00 0.00 0.00 74 1021.8
20260510081539 49 12 2.0 7.0 0.00 0.00 0.00 74 1021.8
20260510080028 49 65 2.0 7.0 0.00 0.00 0.00 75 1021.7
20260510074528 48 68 2.0 7.0 0.00 0.00 0.00 77 1021.8
20260510073032 48 39 2.0 5.0 0.00 0.00 0.00 77 1021.9
20260510071525 47 53 3.0 9.0 0.00 0.00 0.00 78 1021.9
20260510070023 47 52 1.0 10.0 0.00 0.00 0.00 79 1021.7
20260510064522 47 4 2.0 9.0 0.00 0.00 0.00 80 1021.8
20260510063033 46 48 2.0 10.0 0.00 0.00 0.00 81 1021.7
20260510061520 46 55 2.0 9.0 0.00 0.00 0.00 81 1021.8
20260510060023 46 46 0.0 7.0 0.00 0.00 0.00 81 1021.8
20260510054517 46 1 1.0 6.0 0.00 0.00 0.00 82 1021.9
20260510053016 46 296 2.0 7.0 0.00 0.00 0.00 82 1021.6
20260510051513 46 56 1.0 8.0 0.00 0.00 0.00 83 1021.5
20260510050011 46 358 1.0 6.0 0.00 0.00 0.00 83 1021.5
20260510044509 46 148 1.0 5.0 0.00 0.00 0.00 84 1021.5
20260510043008 47 63 1.0 4.0 0.00 0.00 0.00 84 1021.6
20260510041507 47 50 1.0 6.0 0.00 0.00 0.00 84 1021.6
20260510040005 47 79 1.0 7.0 0.00 0.00 0.00 85 1021.6
20260510034504 47 70 1.0 6.0 0.00 0.00 0.00 85 1021.7
20260510033002 47 44 2.0 7.0 0.00 0.00 0.00 85 1021.7
20260510031603 47 28 1.0 7.0 0.00 0.00 0.00 85 1022.0
20260510030100 47 73 1.0 7.0 0.00 0.00 0.00 86 1022.3
20260510024557 47 70 0.0 4.0 0.00 0.00 0.00 86 1022.3
20260510023057 47 28 1.0 6.0 0.00 0.00 0.00 87 1022.3
20260510021600 48 32 0.0 6.0 0.00 0.00 0.00 87 1022.3
20260510020054 48 311 1.0 6.0 0.00 0.00 0.00 87 1022.1
20260510014554 48 32 2.0 7.0 0.00 0.00 0.00 87 1021.8
20260510013051 47 109 2.0 8.0 0.00 0.00 0.00 89 1021.6
20260510011548 48 139 0.0 6.0 0.00 0.00 0.00 89 1021.6
20260510010046 48 49 2.0 8.0 0.00 0.00 0.00 89 1021.9
20260510004545 48 75 2.0 5.0 0.00 0.00 0.00 89 1022.0
20260510003047 48 61 2.0 6.0 0.00 0.00 0.00 90 1022.0
20260510001541 48 339 0.0 5.0 0.00 0.00 0.00 90 1022.1
20260510000038 48 87 0.0 10.0 0.00 0.00 0.00 90 1022.0
20260509234536 48 142 1.0 8.0 0.00 0.00 0.00 89 1022.1
20260509233034 49 51 1.0 6.0 0.00 0.00 0.00 88 1022.0
20260509231529 49 39 1.0 6.0 0.00 0.00 0.00 87 1022.0
20260509230026 50 11 2.0 9.0 0.00 0.00 0.00 85 1022.0
20260509224525 50 79 2.0 9.0 0.00 0.00 0.00 85 1021.8
20260509223029 50 20 3.0 7.0 0.00 0.00 0.00 85 1021.8